Location: ???????
(52.3000°N, 54.4667°E)
Time: 13:22:58
(UTC+00:00)

Cosmos 2123 Rocket - Pass Details

Date: 24 January 2020
Orbit: 961 x 992 km, 82.9° (Epoch: 27 February)

Event Time Altitude Azimuth Distance (km) Brightness Sun altitude
Rises 16:28:39 0° 347° (NNW) 3,719 7.3 -32.5°
Reaches altitude 10° 16:31:12 10° 345° (NNW) 2,764 6.6 -32.9°
Enters shadow 16:37:20 62° 272° (W) 1,101 4.3 -33.8°
